When you browse on this site, cookies collect data to enhance your experience and personalize the content and advertising you see.
Visit our Privacy Policy to learn more. By continuing to use the site, you agree to this use of cookies and data.
  • In Austria
  • List of Countries
  • For 7 days
  • Water Temperature
  • Weather Map
  • News
  • Weather Widgets
  • user-avatar
    Login

    Hourly Weather Prince George

    Today, 30 May, Saturday

    Time Temperature Precipitation Wind Pressure Humidity
    00:00 +12°C° 0 mm 1 mps 699 mmHg 96%
    01:00 +12°C° 0 mm 1 mps 699 mmHg 98%
    02:00 +11°C° 0 mm 1 mps 699 mmHg 98%
    03:00 +11°C° 0 mm 1 mps 698 mmHg 98%
    04:00 +10°C° 0 mm 1 mps 698 mmHg 97%
    05:00 +12°C° 0 mm 1 mps 698 mmHg 94%
    06:00 +13°C° 0 mm 1 mps 698 mmHg 90%
    07:00 +15°C° 0 mm 1 mps 697 mmHg 87%
    08:00 +18°C° 0 mm 1 mps 697 mmHg 77%
    09:00 +21°C° 0 mm 1 mps 697 mmHg 68%
    10:00 +21°C° 0 mm 0 mps 697 mmHg 58%
    11:00 +24°C° 0.1 mm 1 mps 696 mmHg 55%
    12:00 +25°C° 0.1 mm 1 mps 696 mmHg 52%
    13:00 +26°C° 0.1 mm 1 mps 696 mmHg 49%
    14:00 +26°C° 0.1 mm 1 mps 695 mmHg 51%
    15:00 +25°C° 0.1 mm 1 mps 694 mmHg 53%
    16:00 +24°C° 0.1 mm 1 mps 694 mmHg 55%
    17:00 +22°C° 0.4 mm 1 mps 694 mmHg 64%
    18:00 +20°C° 0.4 mm 2 mps 693 mmHg 73%
    19:00 +18°C° 0.4 mm 2 mps 693 mmHg 82%
    20:00 +16°C° 1.5 mm 2 mps 693 mmHg 86%
    21:00 +15°C° 1.5 mm 2 mps 692 mmHg 91%
    22:00 +14°C° 1.5 mm 1 mps 692 mmHg 95%
    23:00 +14°C° 1.4 mm 2 mps 691 mmHg 95%

    Tomorrow, 31 May, Sunday

    Time Temperature Precipitation Wind Pressure Humidity
    00:00 +13°C° 1.4 mm 2 mps 691 mmHg 96%
    01:00 +13°C° 1.4 mm 2 mps 691 mmHg 96%
    02:00 +13°C° 0.5 mm 2 mps 691 mmHg 95%
    03:00 +12°C° 0.5 mm 2 mps 691 mmHg 94%
    04:00 +12°C° 0.5 mm 2 mps 691 mmHg 93%
    05:00 +12°C° 0.2 mm 2 mps 691 mmHg 91%
    06:00 +12°C° 0.2 mm 2 mps 691 mmHg 89%
    07:00 +12°C° 0.2 mm 2 mps 692 mmHg 86%
    08:00 +14°C° 0 mm 2 mps 692 mmHg 73%
    09:00 +16°C° 0 mm 3 mps 692 mmHg 61%
    10:00 +17°C° 0 mm 3 mps 692 mmHg 48%
    11:00 +18°C° 0 mm 3 mps 693 mmHg 43%
    12:00 +19°C° 0 mm 4 mps 693 mmHg 38%
    13:00 +19°C° 0 mm 4 mps 693 mmHg 33%
    14:00 +19°C° 0 mm 4 mps 693 mmHg 33%
    15:00 +19°C° 0 mm 4 mps 693 mmHg 34%
    16:00 +19°C° 0 mm 4 mps 693 mmHg 34%
    17:00 +18°C° 0 mm 4 mps 694 mmHg 37%
    18:00 +17°C° 0 mm 4 mps 694 mmHg 40%
    19:00 +16°C° 0 mm 3 mps 694 mmHg 43%
    20:00 +13°C° 0 mm 4 mps 695 mmHg 46%
    21:00 +12°C° 0 mm 4 mps 696 mmHg 48%
    22:00 +10°C° 0 mm 4 mps 696 mmHg 50%
    23:00 +8°C° 0 mm 4 mps 697 mmHg 54%

    Day after tomorrow, 1 June, Monday

    Time Temperature Precipitation Wind Pressure Humidity
    00:00 +8°C° 0 mm 3 mps 698 mmHg 58%
    01:00 +7°C° 0 mm 3 mps 698 mmHg 61%
    02:00 +5°C° 0 mm 3 mps 699 mmHg 65%
    03:00 +5°C° 0 mm 3 mps 699 mmHg 68%
    04:00 +5°C° 0 mm 2 mps 699 mmHg 71%
    05:00 +6°C° 0 mm 2 mps 699 mmHg 66%
    06:00 +8°C° 0 mm 2 mps 700 mmHg 60%
    07:00 +10°C° 0 mm 3 mps 700 mmHg 55%
    08:00 +11°C° 0 mm 3 mps 700 mmHg 49%
    09:00 +13°C° 0 mm 3 mps 700 mmHg 44%
    10:00 +14°C° 0 mm 3 mps 700 mmHg 38%
    11:00 +16°C° 0 mm 3 mps 700 mmHg 36%
    12:00 +17°C° 0 mm 3 mps 699 mmHg 33%
    13:00 +18°C° 0 mm 3 mps 699 mmHg 31%
    14:00 +18°C° 0 mm 3 mps 699 mmHg 31%
    15:00 +19°C° 0 mm 3 mps 699 mmHg 30%
    16:00 +19°C° 0 mm 3 mps 698 mmHg 30%
    17:00 +18°C° 0 mm 2 mps 698 mmHg 37%
    18:00 +18°C° 0 mm 1 mps 698 mmHg 45%
    19:00 +16°C° 0 mm 1 mps 698 mmHg 52%
    20:00 +14°C° 0 mm 1 mps 699 mmHg 54%
    21:00 +13°C° 0 mm 1 mps 699 mmHg 57%
    22:00 +10°C° 0 mm 2 mps 699 mmHg 59%
    23:00 +9°C° 0 mm 2 mps 699 mmHg 60%

    2 June, Tuesday

    Time Temperature Precipitation Wind Pressure Humidity
    00:00 +8°C° 0 mm 2 mps 700 mmHg 61%
    01:00 +7°C° 0 mm 2 mps 700 mmHg 62%
    02:00 +7°C° 0 mm 2 mps 700 mmHg 65%
    03:00 +6°C° 0 mm 2 mps 700 mmHg 68%
    04:00 +5°C° 0 mm 2 mps 701 mmHg 71%
    05:00 +7°C° 0 mm 2 mps 701 mmHg 65%
    06:00 +9°C° 0 mm 2 mps 701 mmHg 60%
    07:00 +12°C° 0 mm 2 mps 701 mmHg 54%
    08:00 +12°C° 0 mm 3 mps 701 mmHg 49%
    09:00 +14°C° 0 mm 3 mps 700 mmHg 45%
    10:00 +16°C° 0 mm 3 mps 700 mmHg 40%
    11:00 +17°C° 0 mm 3 mps 699 mmHg 38%
    12:00 +18°C° 0 mm 3 mps 699 mmHg 36%
    13:00 +19°C° 0 mm 4 mps 699 mmHg 35%
    14:00 +19°C° 0 mm 3 mps 698 mmHg 36%
    15:00 +19°C° 0 mm 3 mps 698 mmHg 38%
    16:00 +19°C° 0 mm 2 mps 697 mmHg 39%
    17:00 +17°C° 1.5 mm 2 mps 697 mmHg 57%
    18:00 +14°C° 1.5 mm 1 mps 696 mmHg 75%
    19:00 +11°C° 1.5 mm 1 mps 696 mmHg 93%
    20:00 +11°C° 0.3 mm 1 mps 697 mmHg 92%
    21:00 +9°C° 0.3 mm 2 mps 698 mmHg 92%
    22:00 +8°C° 0.3 mm 2 mps 699 mmHg 91%
    23:00 +6°C° 0 mm 2 mps 699 mmHg 91%

    3 June, Wednesday

    Time Temperature Precipitation Wind Pressure Humidity
    00:00 +5°C° 0 mm 2 mps 700 mmHg 90%
    01:00 +4°C° 0 mm 2 mps 700 mmHg 90%
    02:00 +3°C° 0 mm 2 mps 700 mmHg 91%
    03:00 +2°C° 0 mm 2 mps 700 mmHg 92%
    04:00 +2°C° 0 mm 2 mps 701 mmHg 92%
    05:00 +4°C° 0 mm 2 mps 700 mmHg 86%
    06:00 +5°C° 0 mm 3 mps 700 mmHg 79%
    07:00 +8°C° 0 mm 3 mps 700 mmHg 72%
    08:00 +10°C° 0 mm 3 mps 700 mmHg 60%
    09:00 +12°C° 0 mm 3 mps 699 mmHg 48%
    10:00 +14°C° 0 mm 4 mps 699 mmHg 36%
    11:00 +15°C° 0 mm 4 mps 699 mmHg 35%
    12:00 +15°C° 0 mm 4 mps 698 mmHg 33%
    13:00 +17°C° 0 mm 4 mps 698 mmHg 31%
    14:00 +17°C° 0 mm 4 mps 698 mmHg 31%
    15:00 +17°C° 0 mm 4 mps 697 mmHg 31%
    16:00 +17°C° 0 mm 4 mps 697 mmHg 31%
    17:00 +15°C° 0 mm 4 mps 697 mmHg 37%
    18:00 +14°C° 0 mm 3 mps 697 mmHg 42%
    19:00 +13°C° 0 mm 3 mps 697 mmHg 47%
    20:00 +12°C° 0 mm 3 mps 698 mmHg 49%
    21:00 +10°C° 0 mm 3 mps 698 mmHg 51%
    22:00 +8°C° 0 mm 3 mps 699 mmHg 53%
    23:00 +7°C° 0 mm 3 mps 699 mmHg 56%

    4 June, Thursday

    Time Temperature Precipitation Wind Pressure Humidity
    00:00 +5°C° 0 mm 3 mps 699 mmHg 60%
    01:00 +5°C° 0 mm 2 mps 699 mmHg 63%
    02:00 +4°C° 0 mm 2 mps 699 mmHg 67%
    03:00 +4°C° 0 mm 2 mps 700 mmHg 71%
    04:00 +3°C° 0 mm 2 mps 700 mmHg 76%
    05:00 +5°C° 0 mm 2 mps 700 mmHg 68%
    06:00 +7°C° 0 mm 2 mps 700 mmHg 61%
    07:00 +9°C° 0 mm 2 mps 700 mmHg 54%
    08:00 +12°C° 0 mm 2 mps 700 mmHg 48%
    09:00 +14°C° 0 mm 2 mps 700 mmHg 42%
    10:00 +15°C° 0 mm 2 mps 700 mmHg 36%
    11:00 +16°C° 0 mm 2 mps 700 mmHg 33%
    12:00 +17°C° 0 mm 2 mps 699 mmHg 31%
    13:00 +19°C° 0 mm 2 mps 699 mmHg 29%
    14:00 +20°C° 0 mm 1 mps 699 mmHg 29%
    15:00 +20°C° 0 mm 1 mps 698 mmHg 30%
    16:00 +19°C° 0 mm 0 mps 698 mmHg 30%
    17:00 +19°C° 0 mm 1 mps 698 mmHg 37%
    18:00 +18°C° 0 mm 1 mps 697 mmHg 43%
    19:00 +16°C° 0 mm 1 mps 697 mmHg 49%
    20:00 +13°C° 0 mm 1 mps 697 mmHg 52%
    21:00 +11°C° 0 mm 1 mps 697 mmHg 55%
    22:00 +9°C° 0 mm 1 mps 696 mmHg 59%
    23:00 +8°C° 0 mm 1 mps 696 mmHg 60%
    Show more